Location: ???????????
(54.6970°N, 39.1477°E)
Time: 03:09:22
(UTC+00:00)

Lacrosse 5 rocket - Pass Details

Date: 19 May 2025
Orbit: 419 x 516 km, 57.0° (Epoch: 14 June)

Event Time Altitude Azimuth Distance (km) Brightness Sun altitude
Rises 18:09:39 0° 292° (WNW) 2,507 6.1 -5.1°
Reaches altitude 10° 18:11:55 10° 285° (WNW) 1,609 4.8 -5.3°
Maximum altitude 18:15:17 39° 216° (SW) 693 1.8 -5.6°
Drops below altitude 10° 18:18:32 10° 146° (SE) 1,550 3.0 -5.9°
Enters shadow 18:18:59 - 144° (SE) 1,719 3.2 -6.0°
